Simultaneous Nadir Overpasses (SNOs) Predictions

Prediction of SNOs over PacNW region [( 10.00, 139.50) to ( 22.70, 165.60)] between AQUA and NPP Satellites:

Table of predicted SNOs over PacNW region for the next 30.0 days since TLE Epoch: 9/14/2018
Index Date (AQUA) Time (AQUA) AQUA Lat,Lon Date (NPP) Time (NPP) NPP Lat,Lon Distance(km) Time Diff (sec)
1 09/16/2018 15:10:12 22.60, 159.78 09/16/2018 15:11:28 23.16, 157.27 263.71 76
2 09/19/2018 03:32:00 22.69, 147.47 09/19/2018 03:28:30 25.36, 145.11 381.13 210
3 09/24/2018 15:59:29 22.61, 147.45 09/24/2018 16:02:16 23.25, 144.60 300.04 167
4 10/02/2018 15:09:51 22.62, 159.85 10/02/2018 15:11:35 23.20, 157.27 271.40 104
5 10/05/2018 03:31:39 22.70, 147.54 10/05/2018 03:28:09 23.70, 145.53 233.68 210
6 10/10/2018 15:59:06 22.59, 147.52 10/10/2018 16:02:22 23.24, 144.60 308.18 196




NCC Satellite Simultaneous Nadir Overpasses (SNOs) Prediction Service
